This is the latest recevied weather packets stored in our database for station/object N5PUP-13. If no packets are shown the sender has not sent any weather packets the latest 10 day(s).
| Time | Temp. | Humidity | Pressure | Rain* | Wind** | Luminosity | Snow |
|---|---|---|---|---|---|---|---|
| 1787814900 | 25.56° C | 66% | 1018.1 hPa | 0 mm | - | - | - |
| 1787814600 | 25° C | 66% | 1018.2 hPa | 0 mm | - | - | - |
| 1787814300 | 25.56° C | 67% | 1018.1 hPa | 0 mm | - | - | - |
| 1787814000 | 25° C | 68% | 1018.3 hPa | 0 mm | - | - | - |
| 1787813700 | 25° C | 69% | 1018.1 hPa | 0 mm | - | - | - |
| 1787813400 | 25° C | 70% | 1018.1 hPa | 0 mm | - | - | - |
| 1787813100 | 25° C | 70% | 1018 hPa | 0 mm | - | - | - |
| 1787812800 | 25° C | 70% | 1018.1 hPa | 0 mm | - | - | - |
| 1787812500 | 25° C | 69% | 1018.1 hPa | 0 mm | - | - | - |
| 1787812200 | 25° C | 68% | 1018.1 hPa | 0 mm | - | - | - |
| 1787811900 | 25° C | 68% | 1018.1 hPa | 0 mm | - | - | - |
| 1787811600 | 25° C | 68% | 1018.2 hPa | 0 mm | - | - | - |
| 1787811300 | 25.56° C | 67% | 1018.2 hPa | 0 mm | - | - | - |
| 1787811002 | 25.56° C | 66% | 1018.2 hPa | 0 mm | - | - | - |
| 1787810700 | 25.56° C | 65% | 1018.2 hPa | 0 mm | - | - | - |
| 1787810400 | 25.56° C | 63% | 1018.3 hPa | 0 mm | - | - | - |
| 1787810100 | 26.11° C | 64% | 1018.3 hPa | 0 mm | - | - | - |
| 1787809800 | 25.56° C | 65% | 1018.3 hPa | 0 mm | - | - | - |
| 1787809500 | 26.11° C | 64% | 1018.3 hPa | 0 mm | - | - | - |
| 1787809200 | 26.11° C | 64% | 1018.3 hPa | 0 mm | - | - | - |
| 1787808900 | 26.11° C | 63% | 1018.3 hPa | 0 mm | - | - | - |
| 1787808600 | 26.11° C | 63% | 1018.1 hPa | 0 mm | - | - | - |
| 1787808300 | 26.11° C | 63% | 1018 hPa | 0 mm | - | - | - |
| 1787808000 | 26.67° C | 63% | 1018 hPa | 0 mm | - | - | - |
| 1787807700 | 26.67° C | 63% | 1018 hPa | 0 mm | - | - | - |
* Rain latest hour (hover to see other rain measurements)
** Current wind speed in m/s (hover to see current wind gust speed)